Location: Bednik
(45.3500°N, 16.3833°E)
Time: 21:39:58
(UTC+00:00)

USA 234 - Pass Details

Date: 08 August 2020
Orbit: 1100 x 1108 km, 123.0° (Epoch: 17 September)

Event Time Altitude Azimuth Distance (km) Brightness Sun altitude
Exits shadow 20:18:43 29° 129° (SE) 1,891 3.9 -18.8°
Maximum altitude 20:22:22 88° 215° (SW) 1,108 3.2 -19.2°
Drops below altitude 10° 20:28:57 10° 309° (NW) 2,969 6.7 -19.9°
Sets 20:31:26 0° 309° (NW) 3,930 7.6 -20.2°
